User: anonymous   Login
Location: Mason Neck State Park
(38.6428°N, 77.1981°W)
Time: 00:45:08
(UTC-04:00)
Language:

Cosmos 1400 Rocket - Orbit

View from above orbital plane
View from above orbital plane
View from above satellite
View from above satellite

Ground track
Ground track

The orbit data is extracted from the following two-line orbital elements,

1 13403U 82079B   15242.83349367  .00001113  00000-0  74847-4 0  9994
2 13403 081.1698 300.6504 0033540 280.4157 079.3286 15.05537723797923
Epoch (UTC): 30 August 2015 20:00:13
Eccentricity: 0.0033540
inclination: 81.1698°
perigee height: 526 km
apogee height: 573 km
right ascension of ascending node: 300.6504°
argument of perigee: 280.4157°
revolutions per day: 15.05537723
mean anomaly at epoch: 79.3286°
orbit number at epoch: 79792

The dashed part of the orbit path shows where the satellite is in the earth's shadow,  

DLR